[[{"header":{"parameterUnit":"m.s-1","parameterCategory":1,"la1":30.2991,"la2":30.254,"lo1":-89.0895,"lo2":-89.0444,"dy":0.0017,"dx":0.0017,"nx":28,"ny":28,"refTime":"2025-12-27T09:00:00:Z","depth":0,"parameterNumber":2,"parameterNumberName":"U-component_of_WINDS"},"data":[0,0,0,0,0,0,0,0,0,0,0,0,0,0,0,0,0,0,0,0,0,0,0,0,0,0,0,0,0,0,0,0,0,0,0,0,0,0,0,0,0,0,0,0,0,0,0,0,0,0,0,0,0,0,0,0,0,0,-1.7764,-1.7764,0,-1.7736,-1.7736,-1.7736,-1.7673,-1.7671,-1.767,-1.7669,-1.764,-1.764,-1.7641,0,0,0,0,0,0,0,0,0,0,0,0,0,-1.7765,-1.7766,-1.7764,-1.7764,-1.7764,-1.7736,-1.7736,-1.7735,-1.7673,-1.7671,-1.767,-1.7668,-1.764,-1.764,-1.7641,0,0,0,0,0,0,0,0,0,0,0,0,0,-1.7754,-1.7766,-1.7764,-1.7729,-1.7726,-1.7736,-1.7736,-1.7735,-1.7673,-1.7671,-1.7669,-1.7668,-1.764,-1.764,-1.7641,-1.7684,0,0,-1.7643,-1.7643,0,0,0,0,0,0,0,0,-1.7754,-1.7754,-1.7735,-1.7732,-1.7728,-1.7706,-1.7725,-1.7718,-1.7674,-1.7693,-1.7669,-1.7667,-1.7664,-1.7662,-1.7661,-1.7682,-1.7681,-1.7643,-1.7643,-1.7644,-1.7644,0,0,0,0,0,0,0,-1.7755,-1.7755,-1.7753,-1.7735,-1.773,-1.7715,-1.7711,-1.7724,-1.769,-1.7691,-1.7687,-1.7684,-1.7661,-1.7661,-1.766,-1.7681,-1.7643,-1.7644,-1.7644,-1.7644,-1.7736,-1.7738,0,0,0,0,0,0,-1.7761,-1.7756,-1.7754,-1.7752,-1.7737,-1.7717,-1.7712,-1.7715,-1.7689,-1.7683,-1.7686,-1.7681,-1.766,-1.7659,-1.7659,-1.7707,-1.7644,-1.7644,-1.7645,-1.7734,-1.7737,-1.7739,0,0,0,0,0,0,-1.7761,-1.7762,-1.7755,-1.7753,-1.7751,-1.7719,-1.7722,-1.7715,-1.7714,-1.7685,-1.7679,-1.7691,-1.7659,-1.7658,-1.7678,-1.7705,-1.7645,-1.7645,-1.7732,-1.7735,-1.7738,-1.7804,0,0,0,0,0,0,-1.7762,-1.7762,-1.7777,-1.7754,-1.7751,-1.7775,-1.7724,-1.7716,-1.7716,-1.771,-1.7689,-1.7683,-1.7657,-1.7677,-1.7679,-1.7705,-1.7646,-1.7729,-1.7733,-1.7737,-1.7799,-1.7809,-1.7817,0,0,0,0,0,-1.7762,-1.7797,-1.7779,-1.7779,-1.777,-1.7776,-1.7775,-1.7744,-1.7718,-1.7734,-1.7715,-1.7684,-1.7702,-1.768,-1.7681,-1.7708,-1.7727,-1.7732,-1.7737,-1.7795,-1.7807,-1.7817,0,0,0,0,0,0,-1.7824,-1.7793,-1.7772,-1.78,-1.7792,-1.7766,-1.7784,-1.7758,-1.7756,-1.775,-1.7713,-1.7709,-1.7734,-1.7723,-1.7699,-1.7748,-1.771,-1.7715,-1.7754,-1.7765,-1.7774,-1.7775,-1.7646,0,0,0,0,0,-1.7842,-1.7849,-1.7822,-1.7849,-1.7846,-1.7816,-1.7818,-1.7796,-1.7785,-1.7781,-1.7763,-1.7754,-1.7758,-1.7761,-1.7763,-1.7798,-1.7792,-1.7817,-1.7826,-1.7833,-1.7838,-1.7856,-1.7866,-1.7754,-1.7754,-1.7754,0,0,-1.7877,-1.7861,-1.7868,-1.7862,-1.7852,-1.7861,-1.7813,-1.7825,-1.7832,-1.7782,-1.78,-1.7788,-1.7775,-1.7803,-1.7815,-1.7795,-1.7868,-1.7839,-1.7845,-1.7845,-1.7862,-1.7872,-1.7882,-1.7757,-1.7757,-1.7756,0,0,-1.7945,-1.7934,-1.7956,-1.7948,-1.7934,-1.7914,-1.792,-1.7899,-1.7888,-1.7906,-1.787,-1.7877,-1.7884,-1.7877,-1.7874,-1.7943,-1.7914,-1.7945,-1.7991,-1.8009,-1.8018,-1.8026,-1.805,-1.8059,-1.795,-1.795,-1.795,0,-1.799,-1.8002,-1.797,-1.7985,-1.7983,-1.794,-1.7962,-1.7956,-1.7944,-1.7944,-1.7922,-1.7931,-1.792,-1.7946,-1.7963,-1.7962,-1.7967,-1.7946,-1.802,-1.8027,-1.8033,-1.8056,-1.8065,-1.7954,-1.7953,-1.7953,-1.7952,0,-1.8059,-1.8068,-1.8088,-1.8077,-1.8078,-1.8097,-1.8068,-1.8073,-1.8051,-1.8034,-1.8053,-1.8039,-1.8037,-1.8042,-1.802,-1.8065,-1.8053,-1.8026,-1.7987,-1.8048,-1.8069,-1.8077,-1.7959,-1.7958,-1.7956,-1.7955,0,0,-1.8164,-1.8137,-1.8144,-1.814,-1.8123,-1.8129,-1.8146,-1.8145,-1.815,-1.8144,-1.8157,-1.8166,-1.8141,-1.8138,-1.8116,-1.8132,-1.8187,-1.8103,-1.8102,-1.8118,-1.8236,-1.8255,-1.8266,-1.8169,-1.817,-1.8172,-1.8236,0,-1.8227,-1.8254,-1.8227,-1.8259,-1.8268,-1.8228,-1.8243,-1.8235,-1.822,-1.8225,-1.8209,-1.8215,-1.8182,-1.818,-1.8195,-1.8177,-1.821,-1.8173,-1.8181,-1.8181,-1.8183,-1.8276,-1.8297,-1.8358,-1.8244,-1.8246,-1.8247,0,-1.8305,-1.8302,-1.8336,-1.8318,-1.832,-1.8334,-1.8331,-1.8337,-1.8327,-1.8315,-1.8313,-1.8287,-1.8303,-1.8266,-1.8288,-1.8263,-1.8265,-1.8258,-1.8259,-1.8258,-1.8217,-1.8276,-1.8377,-1.8386,-1.8259,-1.8258,-1.8257,0,-1.8377,-1.8383,-1.8404,-1.8401,-1.838,-1.8391,-1.8383,-1.8371,-1.8373,-1.8371,-1.8371,-1.8372,-1.8371,-1.8372,-1.8347,-1.8323,-1.8372,-1.8333,-1.8362,-1.8363,-1.8373,-1.8372,-1.8475,-1.8377,-1.8377,-1.8377,-1.8376,0,-1.845,-1.8472,-1.8436,-1.8449,-1.8472,-1.8442,-1.8466,-1.8454,-1.8444,-1.8454,-1.8421,-1.8431,-1.8398,-1.8405,-1.8385,-1.8406,-1.8407,-1.8397,-1.8392,-1.84,-1.8401,-1.8399,-1.8394,-1.8379,-1.8378,-1.8378,-1.8378,0,-1.8534,-1.8511,-1.8531,-1.851,-1.8506,-1.8524,-1.8507,-1.8518,-1.8502,-1.8515,-1.8517,-1.8491,-1.8498,-1.8473,-1.8476,-1.8463,-1.8494,-1.8482,-1.8497,-1.8493,-1.8523,-1.852,-1.8627,-1.8639,-1.8535,-1.8536,-1.8537,0,-1.8582,-1.8598,-1.8579,-1.8584,-1.8578,-1.8585,-1.8587,-1.8558,-1.8561,-1.8552,-1.8564,-1.8568,-1.857,-1.8582,-1.8564,-1.8566,-1.8553,-1.8591,-1.8553,-1.8561,-1.8553,-1.8552,-1.8553,-1.8598,-1.8599,-1.86,-1.8601,0,-1.8669,-1.8657,-1.866,-1.866,-1.8663,-1.8661,-1.8657,-1.8663,-1.8632,-1.8637,-1.8644,-1.8645,-1.8648,-1.8653,-1.8651,-1.8643,-1.8617,-1.8614,-1.862,-1.8628,-1.8635,-1.8631,-1.8517,-1.8611,-1.861,-1.8609,-1.8608,-1.8608,-1.8735,-1.8748,-1.8737,-1.8742,-1.8736,-1.8734,-1.8744,-1.8729,-1.8734,-1.8734,-1.8717,-1.8727,-1.8719,-1.8714,-1.8709,-1.8717,-1.8699,-1.8709,-1.8712,-1.8714,-1.8719,-1.8636,-1.8717,-1.8716,-1.8716,-1.8716,-1.8716,0,-1.8819,-1.8811,-1.8816,-1.8812,-1.8817,-1.8793,-1.8788,-1.8793,-1.8802,-1.8796,-1.8799,-1.8807,-1.8811,-1.8795,-1.8797,-1.8806,-1.8795,-1.8808,-1.8806,-1.8805,-1.8735,-1.8728,-1.8818,-1.8817,-1.8817,-1.8817,-1.8817,-1.8817,-1.8864,-1.8883,-1.8871,-1.8888,-1.8879,-1.8889,-1.8888,-1.8886,-1.8881,-1.8892,-1.8895,-1.8885,-1.8875,-1.8876,-1.888,-1.8875,-1.8877,-1.8894,-1.8885,-1.882,-1.881,-1.88,-1.8794,-1.8895,-1.8895,-1.8954,-1.8955,-1.8955]},{"header":{"parameterUnit":"m.s-1","parameterCategory":1,"la1":30.2991,"la2":30.254,"lo1":-89.0895,"lo2":-89.0444,"dy":0.0017,"dx":0.0017,"nx":28,"ny":28,"refTime":"2025-12-27T09:00:00:Z","depth":0,"parameterNumber":3,"parameterNumberName":"V-component_of_WINDS"},"data":[0,0,0,0,0,0,0,0,0,0,0,0,0,0,0,0,0,0,0,0,0,0,0,0,0,0,0,0,0,0,0,0,0,0,0,0,0,0,0,0,0,0,0,0,0,0,0,0,0,0,0,0,0,0,0,0,0,0,2.3703,2.3703,0,2.3693,2.3693,2.3693,2.3719,2.372,2.3721,2.3722,2.3711,2.371,2.3709,0,0,0,0,0,0,0,0,0,0,0,0,0,2.3746,2.3746,2.3703,2.3703,2.3703,2.3693,2.3693,2.3693,2.3719,2.372,2.3721,2.3722,2.3711,2.371,2.3709,0,0,0,0,0,0,0,0,0,0,0,0,0,2.3731,2.3745,2.3703,2.3715,2.3716,2.3693,2.3693,2.3693,2.3719,2.372,2.3721,2.3723,2.3712,2.371,2.3709,2.3674,0,0,2.3704,2.3703,0,0,0,0,0,0,0,0,2.3732,2.373,2.3713,2.3714,2.3715,2.3709,2.3705,2.3687,2.3719,2.3718,2.3722,2.3723,2.3709,2.3708,2.3703,2.3674,2.3673,2.3704,2.3703,2.3702,2.3702,0,0,0,0,0,0,0,2.3733,2.373,2.3699,2.3713,2.3714,2.3721,2.372,2.3701,2.3707,2.3718,2.372,2.3718,2.371,2.3705,2.3703,2.3673,2.3704,2.3703,2.3702,2.3701,2.3618,2.3617,0,0,0,0,0,0,2.3733,2.3731,2.37,2.3699,2.3727,2.3719,2.3718,2.371,2.3707,2.3708,2.3717,2.372,2.3707,2.3705,2.3703,2.3665,2.3702,2.3701,2.37,2.362,2.3618,2.3617,0,0,0,0,0,0,2.3733,2.3729,2.37,2.3715,2.3712,2.3717,2.3707,2.3709,2.3704,2.3707,2.3708,2.3711,2.3708,2.3705,2.3682,2.3665,2.37,2.3699,2.3621,2.3619,2.3617,2.3586,0,0,0,0,0,0,2.3734,2.373,2.3716,2.3715,2.3711,2.3678,2.3706,2.3708,2.3701,2.3704,2.3701,2.3702,2.3709,2.3684,2.3681,2.3663,2.3697,2.3623,2.362,2.3618,2.3589,2.3583,2.3579,0,0,0,0,0,2.3736,2.3707,2.3715,2.3711,2.3694,2.3677,2.3675,2.3684,2.3699,2.3686,2.3689,2.3702,2.3667,2.3682,2.3678,2.3659,2.3624,2.3621,2.3618,2.3591,2.3584,2.3579,0,0,0,0,0,0,2.3705,2.3707,2.3716,2.3686,2.3681,2.3682,2.3665,2.3677,2.3667,2.3671,2.3682,2.3681,2.3656,2.3655,2.3672,2.3628,2.3648,2.3644,2.3629,2.3623,2.3618,2.3619,2.3696,0,0,0,0,0,2.3694,2.368,2.3683,2.3656,2.3653,2.366,2.3653,2.366,2.3656,2.3654,2.3655,2.365,2.3639,2.3631,2.362,2.3589,2.359,2.3575,2.357,2.3566,2.3562,2.3549,2.3542,2.3607,2.3607,2.3607,0,0,2.3673,2.3672,2.3662,2.365,2.3647,2.3633,2.3658,2.3641,2.3631,2.3651,2.363,2.363,2.3626,2.36,2.3588,2.3598,2.3545,2.3562,2.3559,2.3558,2.3545,2.3539,2.3533,2.3605,2.3606,2.3606,0,0,2.3626,2.3624,2.3602,2.36,2.3596,2.3601,2.3596,2.3595,2.3597,2.3576,2.3591,2.358,2.3559,2.3556,2.3552,2.3508,2.352,2.3504,2.3478,2.3465,2.346,2.3455,2.3441,2.3436,2.3501,2.3501,2.3501,0,2.36,2.3579,2.359,2.3573,2.3568,2.3587,2.3566,2.3563,2.3555,2.3552,2.3564,2.354,2.3538,2.3513,2.3502,2.3497,2.3493,2.3504,2.3459,2.3455,2.3451,2.3438,2.3432,2.3499,2.3499,2.3499,2.3499,0,2.3548,2.3533,2.3516,2.351,2.3503,2.3484,2.3493,2.3485,2.3494,2.3498,2.3477,2.3476,2.3467,2.3461,2.3469,2.3437,2.3444,2.3457,2.3478,2.3443,2.3431,2.3426,2.3496,2.3497,2.3497,2.3498,0,0,2.348,2.3482,2.3476,2.3474,2.3473,2.3462,2.3445,2.3437,2.343,2.3425,2.3412,2.3395,2.3408,2.3404,2.3412,2.3399,2.3367,2.3415,2.3415,2.3407,2.3335,2.3325,2.3319,2.3375,2.3374,2.3374,2.3336,0,2.3435,2.3406,2.3417,2.3387,2.3375,2.3394,2.338,2.3378,2.3382,2.3373,2.3377,2.3366,2.3383,2.3381,2.3369,2.3373,2.3353,2.3376,2.3364,2.3364,2.3366,2.3312,2.3302,2.3266,2.3331,2.333,2.3329,0,2.3379,2.3374,2.3343,2.3347,2.3342,2.3328,2.3323,2.3314,2.3313,2.3316,2.3313,2.3324,2.3309,2.333,2.331,2.3325,2.3321,2.3323,2.3322,2.3322,2.3345,2.3312,2.3254,2.3249,2.3321,2.3322,2.3323,0,2.3335,2.332,2.33,2.3298,2.3301,2.3292,2.3292,2.3293,2.3288,2.3283,2.328,2.3274,2.327,2.3265,2.3275,2.3289,2.3255,2.3276,2.3258,2.3258,2.325,2.3251,2.3192,2.3246,2.3246,2.3246,2.3246,0,2.3285,2.3266,2.3281,2.3269,2.3249,2.3262,2.3242,2.3245,2.3245,2.3235,2.3251,2.3241,2.3254,2.3246,2.3254,2.3237,2.3235,2.3239,2.3241,2.3238,2.3237,2.3236,2.3239,2.3245,2.3245,2.3245,2.3246,0,2.3232,2.3241,2.3221,2.3226,2.3227,2.3213,2.3217,2.3207,2.3213,2.32,2.3198,2.3207,2.3198,2.3208,2.3199,2.3205,2.3183,2.3188,2.3183,2.3185,2.3168,2.317,2.3107,2.31,2.3157,2.3157,2.3156,0,2.32,2.3186,2.319,2.3185,2.3185,2.3176,2.3172,2.3184,2.3179,2.3179,2.3169,2.3162,2.3157,2.3143,2.3149,2.3143,2.315,2.3128,2.3149,2.3147,2.3151,2.3152,2.3152,2.3124,2.3123,2.3123,2.3122,0,2.3142,2.3148,2.3141,2.3137,2.3132,2.3129,2.3127,2.3122,2.3135,2.3129,2.3121,2.3117,2.311,2.3103,2.31,2.3102,2.3115,2.3116,2.3112,2.3109,2.3107,2.3109,2.3173,2.3117,2.3118,2.3118,2.3118,2.3119,2.31,2.3089,2.3091,2.3084,2.3085,2.3083,2.3075,2.308,2.3074,2.3069,2.3077,2.3068,2.307,2.3067,2.3067,2.306,2.307,2.3063,2.3062,2.306,2.3059,2.3108,2.3059,2.306,2.306,2.306,2.306,0,2.3044,2.3047,2.3041,2.3039,2.3033,2.3047,2.3046,2.3041,2.3032,2.3033,2.3029,2.3021,2.3015,2.3022,2.3017,2.3011,2.3017,2.301,2.3011,2.3011,2.305,2.3054,2.3005,2.3005,2.3005,2.3005,2.3005,2.3005,2.3015,2.2999,2.3006,2.2991,2.2994,2.2985,2.2984,2.2983,2.2984,2.2975,2.297,2.2975,2.2979,2.2975,2.2971,2.2974,2.2972,2.2963,2.2967,2.3003,2.3008,2.3013,2.3018,2.2962,2.2962,2.293,2.2929,2.2929]}]]